Location: Frydek-Mistek
(49.6830°N, 18.3330°E)
Time: 21:09:51
(UTC+02:00)

Courier 1B Rocket - All Passes

Search period start: 03 August 2015 00:00
Search period end: 13 August 2015 00:00
Orbit: 921 x 1202 km, 28.2° (Epoch: 01 August)

Date Brightness Start Highest point End Pass type
(mag) Time Alt. Az. Time Alt. Az. Time Alt. Az.
09 Aug - 08:02:02 10° SSW 08:03:00 10° S 08:03:54 10° S daylight
10 Aug - 07:00:46 10° SSW 07:02:25 11° S 07:04:05 10° SSE daylight
11 Aug - 06:00:13 10° S 06:01:50 11° S 06:03:28 10° SSE daylight
12 Aug - 05:00:51 10° S 05:01:13 10° S 05:01:41 10° SSE visible
12 Aug - 06:51:17 10° SSW 06:53:18 11° S 06:55:14 10° SSE daylight
